sat.trackr.live / text

‹ back to catalog

STARLINK-32447

NORAD 61261 · 2024-175U

PAYLOAD ACTIVE UNKNOWN

§ Identity

Operator
Country
US
Launch date
2024-09-25
Launch site
AFWTR
Launch vehicle
Mass (kg)
RCS (m²)

Purposes: comms

External: N2YO · Heavens-Above · Gunter

§ Orbital elements

Epoch: 2026-05-25T04:05:34.459008Z

Period
94.11 min
Inclination
53.1611°
Eccentricity
0.0001859
Mean motion
15.30184980 rev/d
Perigee alt
474.0 km
Apogee alt
476.5 km
Semi-major
6,853.4 km
B*
-7.0664e-6
RAAN
198.7613°
Arg perigee
98.3193°
Mean anomaly
261.8019°
Rev number
9,316

§ Raw data

STARLINK-324471 61261U 24175U   26145.17053772 -.00000569  00000+0 -70664-5 0  99942 61261  53.1611 198.7613 0001859  98.3193 261.8019 15.30184980 93161

JSON: /api/v1/satellites/61261 · /tle

For live sub-satellite position, see the globe view (requires WebGL).

§ Visibility from observer

Set your observer location to see the next 7 days of passes ≥ 10°. The values pass through the URL so the page stays shareable.

No JS? Fill the form by hand. The geolocation button needs JavaScript.